Retour au catalogue

STARLINK-5277

ActifCommunicationsVLEO
NORAD 55269·PAYLOAD·🇺🇸 United States

Lancé Jan 19, 2023 depuis Vandenberg Space Force Base

Loading…

Prochains Passages (prochaines 24 heures)

TLE

FraisSource: CelesTrak SupGP

Époque: Sep 14, 2026, 21:29 UTC

1 55269C 23010A   26257.89562500  .00764800  00000+0  63070-1 0  2578
2 55269  69.9992 287.4822 0003217 264.1104 148.6757 14.98567211    10

Suivez STARLINK-5277 en temps réel avec AllMySat

Download on the App Store